Regional Weather Roundup
Issued by NWS

Home | Current Version | Previous Version | Text Only | Print | Product List | Glossary Off
Versions: 1 2 3 4 5 6 7 8 9 10 11 12 13 14 15 16 17 18 19 20 21 22 23 24 25 26 27 28 29 30 31 32 33 34 35 36 37 38 39 40 41 42 43 44 45 46 47 48 49 50

000
ASUS43 KLSX 241159
RWRMO

WEATHER SUMMARY FOR MISSOURI
NATIONAL WEATHER SERVICE SPRINGFIELD MO
700 AM CDT THU JUL 24 2014

NOTE: "FAIR" INDICATES FEW OR NO CLOUDS BELOW 12,000 FEET WITH NO
       SIGNIFICANT WEATHER AND/OR OBSTRUCTIONS TO VISIBILITY.
       CURRENT SKY AND/OR WEATHER CONDITIONS ARE NOT AVAILABLE FOR
       CHILLICOTHE AND FARMINGTON.

MOZ001>031-035>038-043-044-053-054-241300-
...NORTHERN AND WESTERN MISSOURI...

CITY           SKY/WX    TMP DP  RH WIND       PRES   REMARKS
KANSAS CTY INT PTCLDY    67  59  75 E8        30.14S
6HR MIN TEMP:  66; 6HR MAX TEMP:  71;

KANSAS C DTWN  CLEAR     68  60  75 E5        30.14R
6HR MIN TEMP:  67; 6HR MAX TEMP:  74;

LEE`S SUMMIT   CLEAR     64  60  87 E6        30.15R
6HR MIN TEMP:  63; 6HR MAX TEMP:  71;

ST JOSEPH      CLEAR     66  59  78 SE3       30.14S
6HR MIN TEMP:  65; 6HR MAX TEMP:  71;

CHILLICOTHE      N/A     61  58  90 CALM      30.17R
6HR MIN TEMP:  60; 6HR MAX TEMP:  65;

KIRKSVILLE     CLEAR     60  57  89 CALM      30.18R
6HR MIN TEMP:  56; 6HR MAX TEMP:  61;


$$
MOZ066>068-077>081-088>096-101>105-241300-
...SOUTHWEST MISSOURI...

CITY           SKY/WX    TMP DP  RH WIND       PRES   REMARKS
SPRINGFIELD    PTCLDY    67  63  87 E5        30.12R
6HR MIN TEMP:  66; 6HR MAX TEMP:  73;

JOPLIN         CLEAR     67  64  90 E7        30.11R
6HR MIN TEMP:  66; 6HR MAX TEMP:  71;


$$
MOZ032>034-039>042-045>050-055>058-069>072-241300-
...CENTRAL MISSOURI...

CITY           SKY/WX    TMP DP  RH WIND       PRES   REMARKS
COLUMBIA       CLEAR     61  59  93 E6        30.16R
6HR MIN TEMP:  59; 6HR MAX TEMP:  65;

JEFFERSON CITY CLEAR     63  58  83 E3        30.15R
6HR MIN TEMP:  60; 6HR MAX TEMP:  69;

ROLLA          CLEAR     62  56  80 NE3       30.13R
6HR MIN TEMP:  60; 6HR MAX TEMP:  67;

SEDALIA        CLEAR     63  59  87 CALM      30.15R
6HR MIN TEMP:  61; 6HR MAX TEMP:  69;

OSAGE BEACH    CLEAR     63  57  82 CALM      30.14R

$$
MOZ051-052-059>065-241300-
...EAST CENTRAL MISSOURI...

CITY           SKY/WX    TMP DP  RH WIND       PRES   REMARKS
ST LOUIS INTL  SUNNY     63  54  72 N5        30.14R
6HR MIN TEMP:  61; 6HR MAX TEMP:  69;

SPIRIT OF STL  SUNNY     58  56  93 CALM      30.14R
6HR MIN TEMP:  55; 6HR MAX TEMP:  64;

ST CHARLES     SUNNY     62  54  74 N7        30.13R
6HR MIN TEMP:  58; 6HR MAX TEMP:  64;


$$
MOZ072>076-082>087-097>100-106>115-241300-
...SOUTH CENTRAL AND SOUTHEAST MISSOURI...

CITY           SKY/WX    TMP DP  RH WIND       PRES   REMARKS
CAPE GIRARDEAU SUNNY     61  53  75 N7        30.08R
6HR MIN TEMP:  59; 6HR MAX TEMP:  70;

FARMINGTON     SUNNY     61  52  72 CALM      30.15R
6HR MIN TEMP:  57; 6HR MAX TEMP:  66;

POPLAR BLUFF   SUNNY     63  52  67 N5        30.09R
6HR MIN TEMP:  62; 6HR MAX TEMP:  74;

WEST PLAINS    CLEAR     64  57  78 NE7       30.14R
6HR MIN TEMP:  62; 6HR MAX TEMP:  70;


$$



USA.gov is the U.S. government's official web portal to all federal, state and local government web resources and services.